PTRZB SJIR-SNXQ

Flight info

Callsign PTRZB
Flight time 1h 9m
Altitude 8500
Route DCT 1302S04126W 1231S04151W 1200S04211W 1126S04231W 1102S04246W DCT
Aircraft C208/L-SDFGR/C

Departure

Time 2026-04-27 22:08
Airport Engenheiro Joaquim Martins Airport (SJIR)

Arrival

Time 2026-04-27 23:17
Airport Xique-Xique Airport (SNXQ)
Time Latitude Longitude Altitude Speed Heading
2026-04-27 21:58 -13.31538 -40.87659 1754 ft 0 kts 84°
2026-04-27 22:04 -13.31538 -40.87663 1754 ft 2 kts 84°
2026-04-27 22:04 -13.31539 -40.87674 1745 ft 0 kts 84°
2026-04-27 22:05 -13.31540 -40.87674 1745 ft 0 kts 168°
2026-04-27 22:05 -13.31559 -40.87687 1756 ft 4 kts 257°
2026-04-27 22:05 -13.31561 -40.87738 1756 ft 3 kts 309°
2026-04-27 22:06 -13.31537 -40.87745 1753 ft 6 kts 351°
2026-04-27 22:06 -13.31520 -40.87748 1755 ft 0 kts 349°
2026-04-27 22:07 -13.31249 -40.87802 1743 ft 84 kts 350°
2026-04-27 22:07 -13.30524 -40.87942 1887 ft 116 kts 349°
2026-04-27 22:08 -13.29722 -40.88097 2238 ft 117 kts 349°
2026-04-27 22:08 -13.28965 -40.88382 2563 ft 119 kts 316°
2026-04-27 22:08 -13.28788 -40.89185 2888 ft 123 kts 263°
2026-04-27 22:08 -13.28832 -40.90067 3240 ft 125 kts 270°
2026-04-27 22:09 -13.28849 -40.91025 3524 ft 140 kts 268°
2026-04-27 22:09 -13.28864 -40.91697 3741 ft 144 kts 269°
2026-04-27 22:09 -13.28710 -40.92716 4069 ft 147 kts 294°
2026-04-27 22:09 -13.28095 -40.93975 4541 ft 151 kts 298°
2026-04-27 22:10 -13.27621 -40.94956 4889 ft 154 kts 297°
2026-04-27 22:10 -13.27304 -40.95611 5099 ft 153 kts 298°
2026-04-27 22:10 -13.26823 -40.96582 5443 ft 153 kts 297°
2026-04-27 22:10 -13.26351 -40.97555 5773 ft 151 kts 297°
2026-04-27 22:11 -13.25882 -40.98513 6113 ft 152 kts 297°
2026-04-27 22:11 -13.25403 -40.99493 6455 ft 153 kts 297°
2026-04-27 22:11 -13.24926 -41.00468 6779 ft 151 kts 296°
2026-04-27 22:11 -13.24469 -41.01406 7102 ft 147 kts 296°
2026-04-27 22:12 -13.24011 -41.02339 7431 ft 145 kts 296°
2026-04-27 22:12 -13.23558 -41.03264 7761 ft 144 kts 296°
2026-04-27 22:12 -13.23112 -41.04179 8076 ft 144 kts 296°
2026-04-27 22:12 -13.22661 -41.05102 8363 ft 145 kts 296°
2026-04-27 22:13 -13.22210 -41.06024 8547 ft 152 kts 295°
2026-04-27 22:13 -13.21713 -41.07037 8555 ft 164 kts 295°
2026-04-27 22:13 -13.21187 -41.08113 8562 ft 172 kts 295°
2026-04-27 22:13 -13.20642 -41.09228 8566 ft 176 kts 295°
2026-04-27 22:14 -13.20090 -41.10354 8556 ft 177 kts 295°
2026-04-27 22:14 -13.19538 -41.11482 8564 ft 177 kts 296°
2026-04-27 22:14 -13.18992 -41.12599 8562 ft 177 kts 295°
2026-04-27 22:14 -13.18439 -41.13734 8568 ft 178 kts 295°
2026-04-27 22:15 -13.17882 -41.14868 8565 ft 177 kts 295°
2026-04-27 22:15 -13.17327 -41.16000 8562 ft 177 kts 295°
2026-04-27 22:15 -13.16776 -41.17126 8565 ft 177 kts 295°
2026-04-27 22:15 -13.16222 -41.18256 8565 ft 178 kts 296°
2026-04-27 22:16 -13.15662 -41.19399 8571 ft 179 kts 295°
2026-04-27 22:16 -13.15107 -41.20534 8571 ft 179 kts 296°
2026-04-27 22:16 -13.14545 -41.21680 8567 ft 178 kts 295°
2026-04-27 22:16 -13.13986 -41.22817 8569 ft 179 kts 295°
2026-04-27 22:17 -13.13428 -41.23959 8568 ft 179 kts 296°
2026-04-27 22:17 -13.12877 -41.25083 8567 ft 178 kts 296°
2026-04-27 22:17 -13.12316 -41.26226 8575 ft 179 kts 296°
2026-04-27 22:17 -13.11755 -41.27371 8575 ft 180 kts 296°
2026-04-27 22:18 -13.11200 -41.28501 8569 ft 178 kts 295°
2026-04-27 22:18 -13.10641 -41.29642 8572 ft 179 kts 295°
2026-04-27 22:18 -13.10079 -41.30787 8575 ft 180 kts 296°
2026-04-27 22:18 -13.09519 -41.31928 8571 ft 178 kts 296°
2026-04-27 22:19 -13.08961 -41.33068 8572 ft 179 kts 296°
2026-04-27 22:19 -13.08399 -41.34211 8574 ft 179 kts 296°
2026-04-27 22:19 -13.07846 -41.35336 8573 ft 179 kts 296°
2026-04-27 22:19 -13.07286 -41.36479 8567 ft 179 kts 296°
2026-04-27 22:20 -13.06729 -41.37620 8572 ft 179 kts 295°
2026-04-27 22:20 -13.06162 -41.38766 8579 ft 180 kts 296°
2026-04-27 22:20 -13.05604 -41.39903 8576 ft 180 kts 295°
2026-04-27 22:20 -13.05043 -41.41050 8575 ft 179 kts 295°
2026-04-27 22:21 -13.04481 -41.42193 8581 ft 179 kts 296°
2026-04-27 22:21 -13.03916 -41.43336 8576 ft 179 kts 296°
2026-04-27 22:21 -13.03291 -41.44442 8576 ft 180 kts 309°
2026-04-27 22:21 -13.02339 -41.45254 8576 ft 181 kts 322°
2026-04-27 22:22 -13.01345 -41.46054 8583 ft 181 kts 321°
2026-04-27 22:22 -13.00350 -41.46865 8587 ft 182 kts 321°
2026-04-27 22:22 -12.99354 -41.47666 8581 ft 181 kts 321°
2026-04-27 22:22 -12.98365 -41.48460 8579 ft 180 kts 321°
2026-04-27 22:23 -12.97392 -41.49248 8577 ft 181 kts 321°
2026-04-27 22:23 -12.96401 -41.50043 8579 ft 181 kts 321°
2026-04-27 22:23 -12.95406 -41.50845 8582 ft 182 kts 321°
2026-04-27 22:23 -12.94408 -41.51648 8584 ft 182 kts 321°
2026-04-27 22:24 -12.93413 -41.52448 8587 ft 181 kts 321°
2026-04-27 22:24 -12.92431 -41.53240 8584 ft 181 kts 321°
2026-04-27 22:24 -12.91438 -41.54037 8585 ft 181 kts 321°
2026-04-27 22:24 -12.90447 -41.54836 8578 ft 181 kts 321°
2026-04-27 22:25 -12.89459 -41.55632 8583 ft 181 kts 321°
2026-04-27 22:25 -12.88465 -41.56431 8586 ft 181 kts 321°
2026-04-27 22:25 -12.87468 -41.57230 8587 ft 182 kts 321°
2026-04-27 22:25 -12.86472 -41.58029 8583 ft 181 kts 321°
2026-04-27 22:26 -12.85493 -41.58819 8582 ft 181 kts 321°
2026-04-27 22:26 -12.84497 -41.59623 8585 ft 182 kts 321°
2026-04-27 22:26 -12.83500 -41.60424 8579 ft 182 kts 321°
2026-04-27 22:26 -12.82503 -41.61224 8588 ft 182 kts 321°
2026-04-27 22:27 -12.81503 -41.62031 8583 ft 182 kts 320°
2026-04-27 22:27 -12.80507 -41.62836 8589 ft 183 kts 321°
2026-04-27 22:27 -12.79516 -41.63623 8585 ft 182 kts 321°
2026-04-27 22:27 -12.78519 -41.64423 8588 ft 182 kts 320°
2026-04-27 22:28 -12.77525 -41.65225 8582 ft 182 kts 321°
2026-04-27 22:28 -12.76529 -41.66027 8580 ft 182 kts 321°
2026-04-27 22:28 -12.75534 -41.66829 8588 ft 181 kts 321°
2026-04-27 22:28 -12.74538 -41.67627 8584 ft 181 kts 321°
2026-04-27 22:29 -12.73559 -41.68409 8586 ft 181 kts 321°
2026-04-27 22:29 -12.72564 -41.69212 8586 ft 181 kts 321°
2026-04-27 22:29 -12.71577 -41.70006 8580 ft 180 kts 321°
2026-04-27 22:29 -12.70588 -41.70798 8580 ft 180 kts 321°
2026-04-27 22:30 -12.69600 -41.71590 8579 ft 180 kts 321°
2026-04-27 22:30 -12.68625 -41.72374 8579 ft 180 kts 321°
2026-04-27 22:30 -12.67636 -41.73168 8578 ft 180 kts 321°
2026-04-27 22:30 -12.66645 -41.73965 8582 ft 181 kts 321°
2026-04-27 22:31 -12.65651 -41.74763 8582 ft 180 kts 321°
2026-04-27 22:31 -12.64673 -41.75547 8582 ft 181 kts 321°
2026-04-27 22:31 -12.63684 -41.76343 8579 ft 180 kts 321°
2026-04-27 22:31 -12.62695 -41.77131 8582 ft 180 kts 321°
2026-04-27 22:32 -12.61708 -41.77925 8580 ft 180 kts 321°
2026-04-27 22:32 -12.60724 -41.78716 8576 ft 179 kts 321°
2026-04-27 22:32 -12.59738 -41.79507 8577 ft 179 kts 321°
2026-04-27 22:32 -12.58753 -41.80296 8577 ft 180 kts 321°
2026-04-27 22:33 -12.57778 -41.81078 8576 ft 179 kts 320°
2026-04-27 22:33 -12.56795 -41.81870 8578 ft 180 kts 321°
2026-04-27 22:33 -12.55811 -41.82656 8574 ft 179 kts 321°
2026-04-27 22:33 -12.54824 -41.83445 8577 ft 180 kts 320°
2026-04-27 22:34 -12.53847 -41.84228 8577 ft 181 kts 321°
2026-04-27 22:34 -12.52852 -41.85027 8577 ft 182 kts 320°
2026-04-27 22:34 -12.51854 -41.85822 8568 ft 180 kts 323°
2026-04-27 22:34 -12.50807 -41.86496 8567 ft 179 kts 326°
2026-04-27 22:35 -12.49753 -41.87180 8567 ft 179 kts 326°
2026-04-27 22:35 -12.48695 -41.87874 8566 ft 180 kts 326°
2026-04-27 22:35 -12.47630 -41.88564 8566 ft 181 kts 326°
2026-04-27 22:35 -12.46569 -41.89257 8578 ft 183 kts 326°
2026-04-27 22:36 -12.45489 -41.89961 8564 ft 183 kts 326°
2026-04-27 22:36 -12.44425 -41.90656 8564 ft 182 kts 326°
2026-04-27 22:36 -12.43355 -41.91351 8563 ft 182 kts 326°
2026-04-27 22:36 -12.42291 -41.92039 8566 ft 181 kts 326°
2026-04-27 22:37 -12.41232 -41.92731 8559 ft 180 kts 326°
2026-04-27 22:37 -12.40181 -41.93414 8561 ft 179 kts 326°
2026-04-27 22:37 -12.39125 -41.94101 8562 ft 181 kts 326°
2026-04-27 22:37 -12.38056 -41.94794 8564 ft 181 kts 327°
2026-04-27 22:38 -12.37004 -41.95481 8566 ft 182 kts 326°
2026-04-27 22:38 -12.35939 -41.96176 8567 ft 182 kts 326°
2026-04-27 22:38 -12.34867 -41.96873 8569 ft 182 kts 326°
2026-04-27 22:38 -12.33799 -41.97567 8568 ft 182 kts 326°
2026-04-27 22:39 -12.32725 -41.98261 8570 ft 182 kts 326°
2026-04-27 22:39 -12.31669 -41.98947 8569 ft 182 kts 326°
2026-04-27 22:39 -12.30599 -41.99643 8567 ft 182 kts 326°
2026-04-27 22:39 -12.29528 -42.00338 8567 ft 182 kts 326°
2026-04-27 22:40 -12.28453 -42.01038 8563 ft 182 kts 326°
2026-04-27 22:40 -12.27398 -42.01724 8567 ft 181 kts 327°
2026-04-27 22:40 -12.26337 -42.02415 8567 ft 180 kts 326°
2026-04-27 22:40 -12.25274 -42.03103 8556 ft 179 kts 326°
2026-04-27 22:41 -12.24220 -42.03787 8563 ft 180 kts 326°
2026-04-27 22:41 -12.23159 -42.04481 8560 ft 181 kts 326°
2026-04-27 22:41 -12.22088 -42.05172 8558 ft 182 kts 326°
2026-04-27 22:41 -12.21034 -42.05858 8557 ft 180 kts 326°
2026-04-27 22:42 -12.19965 -42.06551 8560 ft 182 kts 326°
2026-04-27 22:42 -12.18889 -42.07251 8564 ft 183 kts 326°
2026-04-27 22:42 -12.17824 -42.07944 8567 ft 184 kts 326°
2026-04-27 22:42 -12.16742 -42.08642 8563 ft 183 kts 326°
2026-04-27 22:43 -12.15673 -42.09333 8561 ft 181 kts 326°
2026-04-27 22:43 -12.14606 -42.10028 8552 ft 182 kts 326°
2026-04-27 22:43 -12.13541 -42.10723 8558 ft 182 kts 326°
2026-04-27 22:43 -12.12476 -42.11418 8549 ft 181 kts 326°
2026-04-27 22:44 -12.11423 -42.12097 8548 ft 181 kts 326°
2026-04-27 22:44 -12.10355 -42.12789 8552 ft 181 kts 326°
2026-04-27 22:44 -12.09284 -42.13485 8553 ft 183 kts 326°
2026-04-27 22:44 -12.08207 -42.14184 8562 ft 184 kts 326°
2026-04-27 22:45 -12.07119 -42.14885 8554 ft 184 kts 326°
2026-04-27 22:45 -12.06035 -42.15585 8552 ft 184 kts 326°
2026-04-27 22:45 -12.04974 -42.16278 8548 ft 182 kts 326°
2026-04-27 22:45 -12.03910 -42.16970 8542 ft 181 kts 326°
2026-04-27 22:46 -12.02842 -42.17667 8555 ft 183 kts 326°
2026-04-27 22:46 -12.01751 -42.18364 8551 ft 184 kts 326°
2026-04-27 22:46 -12.00672 -42.19062 8550 ft 183 kts 328°
2026-04-27 22:46 -11.99571 -42.19678 8547 ft 183 kts 329°
2026-04-27 22:47 -11.98476 -42.20332 8549 ft 182 kts 328°
2026-04-27 22:47 -11.97368 -42.20986 8554 ft 184 kts 329°
2026-04-27 22:47 -11.96247 -42.21626 8552 ft 184 kts 330°
2026-04-27 22:47 -11.95132 -42.22279 8540 ft 184 kts 328°
2026-04-27 22:48 -11.94021 -42.22929 8541 ft 184 kts 329°
2026-04-27 22:48 -11.92901 -42.23575 8547 ft 185 kts 329°
2026-04-27 22:48 -11.91791 -42.24220 8552 ft 185 kts 329°
2026-04-27 22:48 -11.90666 -42.24871 8551 ft 185 kts 329°
2026-04-27 22:49 -11.89546 -42.25525 8540 ft 184 kts 329°
2026-04-27 22:49 -11.88433 -42.26170 8542 ft 184 kts 329°
2026-04-27 22:49 -11.87311 -42.26819 8544 ft 185 kts 329°
2026-04-27 22:49 -11.86206 -42.27463 8532 ft 184 kts 329°
2026-04-27 22:50 -11.85093 -42.28111 8533 ft 183 kts 329°
2026-04-27 22:50 -11.83983 -42.28752 8534 ft 183 kts 329°
2026-04-27 22:50 -11.82879 -42.29388 8530 ft 182 kts 329°
2026-04-27 22:50 -11.81783 -42.30028 8530 ft 182 kts 329°
2026-04-27 22:51 -11.80693 -42.30662 8534 ft 183 kts 329°
2026-04-27 22:51 -11.79587 -42.31303 8532 ft 182 kts 329°
2026-04-27 22:51 -11.78489 -42.31941 8533 ft 182 kts 329°
2026-04-27 22:51 -11.77382 -42.32580 8530 ft 182 kts 329°
2026-04-27 22:52 -11.76281 -42.33221 8532 ft 182 kts 329°
2026-04-27 22:52 -11.75176 -42.33861 8527 ft 182 kts 329°
2026-04-27 22:52 -11.74072 -42.34501 8531 ft 182 kts 329°
2026-04-27 22:52 -11.72980 -42.35133 8534 ft 183 kts 329°
2026-04-27 22:53 -11.71874 -42.35775 8533 ft 183 kts 329°
2026-04-27 22:53 -11.70769 -42.36415 8535 ft 183 kts 329°
2026-04-27 22:53 -11.69660 -42.37060 8535 ft 184 kts 329°
2026-04-27 22:53 -11.68549 -42.37705 8535 ft 183 kts 329°
2026-04-27 22:54 -11.67449 -42.38338 8532 ft 184 kts 330°
2026-04-27 22:54 -11.66336 -42.38985 8533 ft 185 kts 329°
2026-04-27 22:54 -11.65221 -42.39631 8532 ft 184 kts 330°
2026-04-27 22:54 -11.64106 -42.40270 8530 ft 183 kts 329°
2026-04-27 22:55 -11.62998 -42.40922 8536 ft 185 kts 329°
2026-04-27 22:55 -11.61871 -42.41576 8533 ft 187 kts 329°
2026-04-27 22:55 -11.60734 -42.42228 8533 ft 187 kts 330°
2026-04-27 22:55 -11.59621 -42.42874 8526 ft 185 kts 329°
2026-04-27 22:56 -11.58496 -42.43529 8530 ft 186 kts 330°
2026-04-27 22:56 -11.57364 -42.44179 8520 ft 185 kts 330°
2026-04-27 22:56 -11.56241 -42.44833 8531 ft 186 kts 330°
2026-04-27 22:56 -11.55114 -42.45481 8520 ft 185 kts 330°
2026-04-27 22:57 -11.54012 -42.46122 8525 ft 185 kts 330°
2026-04-27 22:57 -11.52892 -42.46772 8516 ft 183 kts 330°
2026-04-27 22:57 -11.51782 -42.47417 8519 ft 184 kts 330°
2026-04-27 22:57 -11.50664 -42.48060 8517 ft 184 kts 330°
2026-04-27 22:58 -11.49926 -42.48486 8516 ft 184 kts 330°
2026-04-27 22:58 -11.48810 -42.49133 8514 ft 184 kts 330°
2026-04-27 22:58 -11.47687 -42.49783 8518 ft 185 kts 330°
2026-04-27 22:58 -11.46577 -42.50425 8515 ft 185 kts 330°
2026-04-27 22:59 -11.45458 -42.51074 8514 ft 185 kts 330°
2026-04-27 22:59 -11.44338 -42.51721 8514 ft 185 kts 330°
2026-04-27 22:59 -11.43239 -42.52413 8513 ft 185 kts 327°
2026-04-27 22:59 -11.42154 -42.53097 8512 ft 186 kts 329°
2026-04-27 23:00 -11.39966 -42.54468 8510 ft 183 kts 328°
2026-04-27 23:00 -11.38877 -42.55151 8503 ft 183 kts 328°
2026-04-27 23:00 -11.37798 -42.55834 8500 ft 183 kts 329°
2026-04-27 23:01 -11.36729 -42.56507 8500 ft 183 kts 328°
2026-04-27 23:01 -11.35647 -42.57193 8504 ft 183 kts 328°
2026-04-27 23:01 -11.34555 -42.57885 8511 ft 185 kts 329°
2026-04-27 23:01 -11.33459 -42.58574 8501 ft 184 kts 329°
2026-04-27 23:02 -11.32373 -42.59259 8499 ft 183 kts 328°
2026-04-27 23:02 -11.31302 -42.59935 8495 ft 183 kts 328°
2026-04-27 23:02 -11.30214 -42.60626 8507 ft 185 kts 329°
2026-04-27 23:02 -11.29114 -42.61327 8500 ft 186 kts 329°
2026-04-27 23:03 -11.28005 -42.62010 8504 ft 186 kts 329°
2026-04-27 23:03 -11.26904 -42.62706 8506 ft 187 kts 329°
2026-04-27 23:03 -11.25811 -42.63407 8498 ft 184 kts 329°
2026-04-27 23:03 -11.24710 -42.64101 8503 ft 188 kts 329°
2026-04-27 23:04 -11.23605 -42.64795 8490 ft 188 kts 329°
2026-04-27 23:04 -11.22492 -42.65491 8500 ft 187 kts 329°
2026-04-27 23:04 -11.21386 -42.66186 8488 ft 187 kts 328°
2026-04-27 23:04 -11.20287 -42.66893 8485 ft 186 kts 328°
2026-04-27 23:05 -11.19187 -42.67586 8484 ft 186 kts 329°
2026-04-27 23:05 -11.18087 -42.68275 8492 ft 185 kts 329°
2026-04-27 23:05 -11.16983 -42.68972 8489 ft 187 kts 329°
2026-04-27 23:05 -11.15876 -42.69670 8485 ft 187 kts 329°
2026-04-27 23:06 -11.14789 -42.70357 8487 ft 187 kts 329°
2026-04-27 23:06 -11.13681 -42.71051 8302 ft 189 kts 329°
2026-04-27 23:06 -11.12550 -42.71766 7947 ft 193 kts 329°
2026-04-27 23:06 -11.11406 -42.72484 7584 ft 193 kts 329°
2026-04-27 23:07 -11.10259 -42.73211 7230 ft 193 kts 330°
2026-04-27 23:07 -11.09132 -42.73921 6884 ft 193 kts 330°
2026-04-27 23:07 -11.07993 -42.74644 6528 ft 193 kts 331°
2026-04-27 23:07 -11.06890 -42.75336 6479 ft 179 kts 331°
2026-04-27 23:08 -11.05849 -42.75988 6372 ft 176 kts 330°
2026-04-27 23:08 -11.04766 -42.76642 6037 ft 184 kts 338°
2026-04-27 23:08 -11.03524 -42.76889 5704 ft 182 kts
2026-04-27 23:08 -11.02294 -42.76633 5365 ft 179 kts 26°
2026-04-27 23:09 -11.01166 -42.76123 5043 ft 179 kts 26°
2026-04-27 23:09 -11.00012 -42.75631 4718 ft 180 kts 26°
2026-04-27 23:09 -10.98853 -42.75129 4375 ft 181 kts 26°
2026-04-27 23:09 -10.97696 -42.74625 4036 ft 180 kts 26°
2026-04-27 23:10 -10.96576 -42.74132 3745 ft 175 kts 27°
2026-04-27 23:10 -10.95462 -42.73653 3458 ft 173 kts 26°
2026-04-27 23:10 -10.94352 -42.73175 3179 ft 174 kts 27°
2026-04-27 23:10 -10.93238 -42.72692 2891 ft 174 kts 27°
2026-04-27 23:11 -10.92131 -42.72213 2611 ft 172 kts 28°
2026-04-27 23:11 -10.91043 -42.71738 2472 ft 165 kts 27°
2026-04-27 23:11 -10.90018 -42.71294 2467 ft 156 kts 27°
2026-04-27 23:11 -10.89004 -42.70854 2460 ft 160 kts 27°
2026-04-27 23:12 -10.87897 -42.70604 2466 ft 169 kts
2026-04-27 23:12 -10.86730 -42.70823 2468 ft 177 kts 343°
2026-04-27 23:12 -10.85693 -42.71521 2466 ft 182 kts 317°
2026-04-27 23:12 -10.84996 -42.72603 2462 ft 185 kts 297°
2026-04-27 23:13 -10.84425 -42.73782 2467 ft 185 kts 300°
2026-04-27 23:13 -10.83834 -42.74936 2460 ft 186 kts 298°
2026-04-27 23:13 -10.83259 -42.76047 2464 ft 162 kts 306°
2026-04-27 23:13 -10.82494 -42.76624 2459 ft 124 kts 353°
2026-04-27 23:14 -10.81675 -42.76597 2285 ft 117 kts 26°
2026-04-27 23:14 -10.81035 -42.76119 2046 ft 115 kts 54°
2026-04-27 23:14 -10.80762 -42.75385 1821 ft 115 kts 85°
2026-04-27 23:14 -10.80927 -42.74588 1678 ft 113 kts 113°
2026-04-27 23:15 -10.81225 -42.73870 1653 ft 105 kts 111°
2026-04-27 23:15 -10.81490 -42.73211 1668 ft 103 kts 112°
2026-04-27 23:15 -10.81754 -42.72528 1669 ft 99 kts 110°
2026-04-27 23:15 -10.82021 -42.71885 1661 ft 101 kts 111°
2026-04-27 23:16 -10.82281 -42.71223 1665 ft 98 kts 110°
2026-04-27 23:16 -10.82539 -42.70579 1666 ft 100 kts 110°
2026-04-27 23:16 -10.82803 -42.69888 1480 ft 107 kts 111°
2026-04-27 23:16 -10.83071 -42.69214 1468 ft 100 kts 111°
2026-04-27 23:17 -10.83291 -42.68648 1406 ft 68 kts 114°
2026-04-27 23:17 -10.83407 -42.68363 1409 ft 9 kts 120°
2026-04-27 23:17 -10.83409 -42.68338 1409 ft 2 kts
2026-04-27 23:17 -10.83394 -42.68383 1407 ft 18 kts 275°
2026-04-27 23:18 -10.83358 -42.68485 1405 ft 16 kts 291°
2026-04-27 23:18 -10.83309 -42.68558 1408 ft 9 kts 12°
2026-04-27 23:18 -10.83248 -42.68546 1406 ft 10 kts 322°
2026-04-27 23:18 -10.83203 -42.68568 1403 ft 0 kts 14°